Hourly Data Report for January 01, 2018

All times are specified in Local Standard Time (LST). Add 1 hour to adjust for Daylight Saving Time where and when it is observed.

TORONTO INTL A
ONTARIO

43°40'36.000" N
79°37'50.000" W
173.40 m
6158731
71624
YYZ

Download Data

Hourly Data (January 2018)
Hourly Data Report for January 1, 2018
Temp Definition
°C
Dew Point Temp Definition
°C
Rel Hum Definition
%
Wind Dir Definition
10's deg

Wind Spd Definition
km/h
Visibility Definition
km
Stn Press Definition
kPa
Hmdx Definition


Wind Chill Definition


Weather Definition


TIME
00:00 Legend Double Dagger -19.5 -24.1 67 1 9 24.1 100.89   -26 LegendNANA
01:00 Legend Double Dagger -21.7 -25.7 71 28 12 24.1 100.90   -30 Clear
02:00 Legend Double Dagger -19.3 -23.0 73 27 9 24.1 100.89   -26 LegendNANA
03:00 Legend Double Dagger -20.3 -23.9 73 27 4 24.1 100.88   -24 LegendNANA
04:00 Legend Double Dagger -19.9 -23.2 75 28 4 24.1 100.83   -23 Mainly Clear
05:00 Legend Double Dagger -18.7 -22.0 76 36 2 24.1 100.79   -20 LegendNANA
06:00 Legend Double Dagger -17.5 -21.0 75 21 5 24.1 100.72   -21 LegendNANA
07:00 Legend Double Dagger -17.4 -20.8 75 15 5 24.1 100.68   -21 Mainly Clear
08:00 Legend Double Dagger -18.5 -21.6 77 26 12 24.1 100.64   -26 LegendNANA
09:00 Legend Double Dagger -14.9 -18.1 76 25 21 24.1 100.59   -24 LegendNANA
10:00 Legend Double Dagger -12.8 -16.8 72 25 27 24.1 100.59   -23 Mostly Cloudy
11:00 Legend Double Dagger -11.4 -16.3 67 25 32 24.1 100.56   -22 LegendNANA
12:00 Legend Double Dagger -10.0 -15.8 63 26 37 24.1 100.46   -20 Blowing Snow
13:00 Legend Double Dagger -9.7 -15.6 62 26 28 24.1 100.39   -19 Blowing Snow
14:00 Legend Double Dagger -8.7 -15.0 61 26 35 24.1 100.36   -18 Blowing Snow
15:00 Legend Double Dagger -10.3 -14.9 69 32 33 11.3 100.43   -20 Snow
16:00 Legend Double Dagger -10.6 -17.6 57 32 26 24.1 100.49   -20 Mainly Clear
17:00 Legend Double Dagger -11.4 -17.8 59 31 28 24.1 100.53   -21 LegendNANA
18:00 Legend Double Dagger -12.3 -19.0 58 30 29 24.1 100.63   -22 LegendNANA
19:00 Legend Double Dagger -13.2 -19.4 60 30 29 24.1 100.69   -24 Mainly Clear
20:00 Legend Double Dagger -13.9 -19.7 62 28 21 24.1 100.74   -23 LegendNANA
21:00 Legend Double Dagger -14.4 -19.8 64 27 21 24.1 100.75   -24 LegendNANA
22:00 Legend Double Dagger -13.9 -19.2 65 27 22 24.1 100.75   -23 Mainly Clear
23:00 Legend Double Dagger -12.3 -17.8 64 27 17 24.1 100.75   -20 LegendNANA

Notes on Data Quality.

Legend

  • E = Estimated
  • M = Missing
  • NA = Not Available
  • ‡ = Partner data that is not subject to review by the National Climate Archives
Date modified: